Weather History for HESH - October, 2012

Change the Weather History Date:

Saturday, October 6, 2012

  Actual Average Record
Temperature  
Mean Temperature 86 °F -  
Max Temperature 95 °F - - ()
Min Temperature 77 °F - - ()
Cooling Degree Days 21    
Growing Degree Days 36 (Base 50)    
Moisture  
Dew Point 56 °F    
Average Humidity 39    
Maximum Humidity 61    
Minimum Humidity 26    
Precipitation  
Precipitation 0.00 in - - ()
Sea Level Pressure  
Sea Level Pressure 29.85 in    
Wind  
Wind Speed 6 mph ()    
Max Wind Speed 10 mph    
Max Gust Speed -    
Visibility 6.2 miles    
Events      
T = Trace of Precipitation, MM = Missing Value Source: Averaged Metar Reports

Daily Weather History Graph

Daily Weather History Graph

Search for Another Location

Airport or City:

Trip Planner

Search our weather history database for the weather conditions in past years. The results will help you decide how hot, cold, wet, or windy it might be!

Date:

Astronomy

Oct. 06, 2012 Rise Set
Actual Time 5:37 AM EET 5:22 PM EET
Civil Twilight 5:14 AM EET 5:46 PM EET
Nautical Twilight 4:47 AM EET 6:13 PM EET
Astronomical Twilight 4:20 AM EET 6:40 PM EET
Moon 9:42 PM EET (10/6) 10:53 AM EET (10/6)
Length of Visible Light 12h 31m
Length of Day
11h 44m
Waning Gibbous, 68% of the Moon is Illuminated
Oct 6
Waning Gibbous
Oct 8
Last Quarter
Oct 15
New
Oct 22
First Quarter
Oct 29
Full

Hourly Weather History & Observations

Time (EET) Temp. Heat Index Dew Point Humidity Pressure Visibility Wind Dir Wind Speed Gust Speed Precip Events Conditions
12:00 AM 82.4 °F 81.4 °F 53.6 °F 37% 29.83 in - North 8.1 mph - N/A   Clear
1:00 AM 82.4 °F - 48.2 °F 30% 29.83 in - NW 4.6 mph - N/A   Clear
2:00 AM 78.8 °F - 46.4 °F 32% 29.83 in - NW 5.8 mph - N/A   Clear
3:00 AM 78.8 °F - 59.0 °F 51% 29.83 in - North 8.1 mph - N/A   Clear
4:00 AM 78.8 °F - 60.8 °F 54% 29.83 in - North 8.1 mph - N/A   Clear
5:00 AM 78.8 °F - 64.4 °F 61% 29.86 in - North 9.2 mph - N/A   Clear
6:00 AM 77.0 °F - 62.6 °F 61% 29.86 in 6.2 mi North 10.4 mph - N/A   Partly Cloudy
7:00 AM 80.6 °F 81.8 °F 62.6 °F 54% 29.86 in - North 8.1 mph - N/A   Clear
8:00 AM 84.2 °F 84.4 °F 60.8 °F 45% 29.89 in - North 9.2 mph - N/A   Clear
9:00 AM 87.8 °F 87.1 °F 59.0 °F 38% 29.89 in - NNE 8.1 mph - N/A   Clear
10:00 AM 91.4 °F 90.7 °F 59.0 °F 34% 29.89 in - NE 6.9 mph - N/A   Clear
11:00 AM 93.2 °F 91.9 °F 57.2 °F 30% 29.89 in - NE 8.1 mph - N/A   Clear
1:00 PM 93.2 °F 91.3 °F 55.4 °F 28% 29.83 in 6.2 mi NE 10.4 mph - N/A   Partly Cloudy
2:00 PM 91.4 °F 89.9 °F 57.2 °F 31% 29.83 in 6.2 mi NE 10.4 mph - N/A   Partly Cloudy
3:00 PM 95.0 °F 93.0 °F 55.4 °F 26% 29.83 in 6.2 mi NE 5.8 mph - N/A   Scattered Clouds
4:00 PM 93.2 °F 90.8 °F 53.6 °F 26% 29.83 in 6.2 mi NNE 5.8 mph - N/A   Scattered Clouds
5:00 PM 89.6 °F 87.3 °F 53.6 °F 29% 29.83 in 6.2 mi North 3.5 mph - N/A   Scattered Clouds
6:00 PM 86.0 °F - 50.0 °F 29% 29.83 in 6.2 mi North 3.5 mph - N/A   Scattered Clouds
7:00 PM 82.4 °F 82.0 °F 57.2 °F 42% 29.86 in 6.2 mi Calm Calm - N/A   Scattered Clouds
8:00 PM 82.4 °F 82.0 °F 57.2 °F 42% 29.86 in 6.2 mi Calm Calm - N/A   Scattered Clouds
9:00 PM 80.6 °F 80.3 °F 53.6 °F 39% 29.86 in 6.2 mi Calm Calm - N/A   Scattered Clouds
10:00 PM 80.6 °F 80.5 °F 55.4 °F 42% 29.86 in 6.2 mi WSW 2.3 mph - N/A   Scattered Clouds
11:00 PM 78.8 °F - 51.8 °F 39% 29.86 in 6.2 mi NW 3.5 mph - N/A   Scattered Clouds